Location: ??????
(55.2000°N, 38.3000°E)
Time: 14:20:12
(UTC+00:00)

Sich 1 Rocket - Visible Passes

Search period start: 14 February 2026 00:00
Search period end: 24 February 2026 00:00
Orbit: 612 x 645 km, 82.5° (Epoch: 13 February)

Date Brightness Start Highest point End Pass type
(mag) Time Alt. Az. Time Alt. Az. Time Alt. Az.
14 Feb 6.2 03:52:45 10° SE 03:56:24 25° E 04:00:06 10° NNE visible
14 Feb 3.7 15:31:57 10° NNW 15:36:31 84° W 15:41:05 10° S visible
14 Feb 6.9 17:11:34 10° NW 17:13:50 14° W 17:16:07 10° WSW visible
15 Feb 4.7 15:52:19 10° NNW 15:56:44 49° W 16:01:06 10° SSW visible
16 Feb 7.1 02:57:47 10° E 02:59:26 12° ENE 03:01:04 10° ENE visible
16 Feb 5.9 16:12:53 10° NNW 16:16:50 29° W 16:20:44 10° SSW visible
17 Feb 6.6 03:16:06 10° SE 03:19:20 20° E 03:22:35 10° NE visible
17 Feb 6.7 16:33:46 10° NW 16:36:49 18° W 16:39:51 10° SW visible
18 Feb 5.7 03:35:21 10° SSE 03:39:20 33° E 03:43:22 10° NNE visible
18 Feb 4.2 15:15:01 10° NNW 15:19:34 65° W 15:24:04 10° S visible
18 Feb 7.3 16:55:46 10° WNW 16:56:41 11° WNW 16:57:37 10° W visible
19 Feb 4.5 03:55:05 10° S 03:59:27 56° E 04:03:54 10° NNE visible
19 Feb 5.4 15:35:29 10° NNW 15:39:42 38° W 15:43:54 10° SSW visible
20 Feb 6.9 02:39:39 10° ESE 02:42:17 15° E 02:44:54 10° NE visible
20 Feb 6.4 15:56:11 10° NW 15:59:45 23° W 16:03:18 10° SW visible
21 Feb 6.1 02:58:33 10° SE 03:02:13 25° E 03:05:56 10° NNE visible
21 Feb 7.0 16:17:20 10° NW 16:19:41 14° W 16:22:00 10° WSW visible
22 Feb 5.1 03:18:03 10° SSE 03:22:17 42° E 03:26:34 10° NNE visible
23 Feb 7.1 02:03:36 10° E 02:05:14 12° ENE 02:06:53 10° ENE visible
23 Feb 4.0 03:37:59 10° S 03:42:27 73° E 03:47:00 10° NNE visible
